Hourly Data Report for April 16, 2004

SHERBROOKE A
QUEBEC

45°26'00.000" N
71°41'00.000" W
241.40 m
7028124
71610
YSC

Download Data

Hourly Data (April 2004)
Hourly Data Report for April 16, 2004
TIME
LST
Temp Definition
°C
Dew Point Definition
°C
Rel Hum Definition
%
Precip. Amount Definition
mm

Wind Dir Definition
10's deg

Wind Spd Definition
km/h
Visibility Definition
km
Stn Press Definition
kPa
Hmdx Definition


Wind Chill Definition


Weather Definition


00:00 -1.8 -8.0 63   7 6 15.0 99.51   -4  
01:00 -1.3 -8.5 58   3 6 15.0 99.56   -4  
02:00 -1.9 -8.9 59   4 6 15.0 99.60   -4  
03:00 -2.2 -8.8 61   4 6 15.0 99.63   -5  
04:00 -3.9 -8.7 69   36 4 15.0 99.63   -6  
05:00 -4.5 -9.0 71   28 6 15.0 99.68   -7  
06:00 -3.2 -7.2 74   12 6 15.0 99.77   -6  
07:00 -0.1 -8.4 54   9 4 24.1 99.83   -1 Clear
08:00 2.0 -8.9 44   5 11 24.1 99.82     Clear
09:00 3.3 -9.6 38   2 13 24.1 99.81     Clear
10:00 5.0 -9.3 35   5 11 24.1 99.76     Clear
11:00 6.9 -9.3 30   35 15 24.1 99.68     Clear
12:00 7.9 -9.5 28   7 9 24.1 99.63     Clear
13:00 9.0 -9.1 27   33 9 24.1 99.58     Clear
14:00 10.1 -8.9 25   36 7 24.1 99.53     Clear
15:00 10.2 -10.6 22   36 11 24.1 99.47     Clear
16:00 10.0 -10.7 22   33 6 24.1 99.42     Clear
17:00 9.5 -9.9 24   4 15 15.0 99.39      
18:00 8.2 -10.5 25   3 7 15.0 99.38      
19:00 5.8 -10.5 30   3 4 15.0 99.40      
20:00 1.7 -7.2 52   4 4 15.0 99.42      
21:00 0.2 -7.7 55   12 4 15.0 99.42      
22:00 -1.2 -6.5 67   10 6 15.0 99.39   -3  
23:00 -1.2 -6.2 69   10 7 15.0 99.40   -4  

Notes on Data Quality.

Legend

  • E = Estimated
  • M = Missing
  • NA = Not Available*
  • [empty] = Indicates an unobserved value
Date modified: